STARLINK-1944, 46796

Orbit data source: Space-Track

STARLINK-1944, 46796 is a payload satellite owned by SpaceX/Seattle (US) in LEO that was launched on Sat, 24 Oct 2020 UTC via an FALCON 9 launch vehicle from the Air Force Eastern Test Range (AFETR). Payload-class satellites include a variety of spacecraft equipped with specific instruments for various scientific and technological missions. These include communications satellites like Starlink; space stations such as the ISS; scientific satellites like the Hubble; Earth observation satellites from companies like Planet Labs, Umbra, and HawkEye 360; GPS; miniature CubeSats for education and research; and military/defense satellites.

Loading next visibility...
Identifier
46796, 2020-074BK
Orbit
LEO
Country
Flag of USUS
Related business
Manufacturer
SpaceX/Seattle
Mission
Operational Commercial Communications
Bus & Motor
STARLINK, Unknown motor
Mass
260 kg wet, ~248 kg dry
Launch date (UTC)
2020-10-24 (5 years ago)
Launch vehicle
FALCON 9
Launch site
Air Force Eastern Test Range (AFETR)
Object type
Payload
Rocket body
Debris
Shape & HBR
Box + 1 Pan, 10.1 m
Radar Cross Section
13.562 m², Large (>1 m²)

Expand to show TLE details & history
Last TLE update: 12 hours ago

TLE from 12 hours ago
0 STARLINK-1944
1 46796U 20074BK  25305.66668981  .01084602  00000-0  33984-1 0  9999
2 46796  53.0589 165.2097 0001424  83.9868 249.8518 15.29701789  5851
Epoch: 2025-11-01T16:00Z
TLE epoch observation values (Epoch: 2025-11-01T16:00:01.999Z)
Latitude
-20.82985°
Longitude
-132.52135°
Altitude
482.858 km
Speed
7.624 km/s
True Right ascension
09h 54m 43s
True Declination
-20° 42' 41"
Sunlit
Object was in daylight at epoch
Visualization orbit readout
Latitude
Unknown
Longitude
Unknown
Altitude
Unknown
Speed
Unknown
Apparent Right ascension
Unknown
Apparent Declination
Unknown
Sunlit
N/A
Visualization observer readout
Local Sidereal Time
23:32:02
Azimuth
Unknown
Elevation
Unknown
Doppler factor
Unknown
Orbital elements
Apogee altitude
477.952 km
Perigee altitude
476 km
Semi-major axis
6,855.113 km
Eccentricity
0.00014
Inclination
53.0589°
RAAN
165.2097°
Arg. of periapsis
83.9868°
True anomaly
249.83648°
Mean anomaly
249.8518°
Eccentric anomaly
249.84414°
Mean motion
3.82403 °/min
Orbital period
94.14 mins
BSTAR
0.033984
Loading maneuver chart data...
Computing Atmospheric mass density...

Documentation

Showing up to 5 results
|